Vertical_Velocity
4 2 0 1 1 8 -2 8 7 2 4 2 5 1 8 2 12 -0 -2 2 -1 -6 -0 -1 7 1 -1 -2 -2 -1 -0 -2 3 -1 3 0 0 -0 -0 0 0 0 0
2 3 3 5 1 -0 -0 2 6 1 9 14 -18 13 52 -6 -9 -4 -1 5 -3 -4 -4 1 12 6 -1 -4 -2 -1 -0 0 -1 -1 1 0 0 -0 -0 -1 -0 0 0
1 3 4 2 1 2 -0 0 2 -4 7 -9 -10 -11 -12 13 1 -5 7 1 -3 -6 -4 -7 3 12 2 -2 -3 -3 -1 -2 -0 0 -0 2 -0 -1 -1 -1 -0 -0 -1
-1 -0 3 3 1 0 0 1 1 2 3 -1 -8 0 7 -5 -1 -8 -1 5 1 -2 12 -10 5 8 4 6 -5 -0 -3 -1 -3 0 -1 -2 0 -0 1 0 0 -1 -1
-1 -1 -2 -1 0 2 -0 -2 -4 -1 1 2 -0 -3 -7 -3 -6 4 -1 1 10 3 3 3 3 8 3 5 8 -0 -2 -2 -1 -2 0 -1 -1 -1 -0 -1 -1 0 -0
-2 -1 -2 -2 -1 -2 -0 0 1 -1 -2 0 1 -1 -4 -4 -2 1 -1 -3 2 10 8 1 2 3 12 5 -8 8 -1 -0 1 -2 -1 -1 -1 -1 -1 1 -1 0 -0
-2 -1 -1 -1 -2 -0 -1 -0 2 -3 -0 -0 0 -7 1 2 3 -2 -0 3 -3 -5 -1 10 7 3 5 -1 0 8 1 -2 -0 -1 -2 -1 -3 -2 -2 -0 0 -1 -0
-5 -2 -2 -2 0 0 -1 -2 -2 0 3 2 -2 -1 -5 -1 6 4 -1 1 -1 3 -7 3 7 9 -0 5 1 2 14 -0 -5 -2 -0 -1 0 -2 -3 -2 -1 -1 -3
0 -3 -3 -3 -2 -1 2 0 -1 -2 -2 1 1 1 -4 -5 -3 4 4 3 1 -1 -0 6 5 16 1 1 5 3 -2 4 1 -0 -2 -0 1 -0 0 -1 -2 -1 -0
0 -1 -1 -3 -2 -1 0 3 3 1 -3 -2 2 2 3 0 -3 -6 4 2 2 0 4 10 -2 3 12 4 5 -5 0 2 0 -3 0 -1 0 3 1 -1 -2 -1 -2
0 1 2 1 -1 -1 0 -1 -0 0 3 -1 -0 -0 0 0 3 -2 -4 -3 1 1 -6 0 5 -2 2 44 4 6 6 2 -2 -8 6 -1 1 -1 1 -2 -2 1 -0
1 -1 -1 1 -0 -0 -1 -1 -2 4 4 1 -0 -0 -1 -2 3 4 -0 -3 -3 -4 3 3 3 -3 -2 -5 4 26 24 0 -1 1 18 2 3 1 0 0 -3 -2 -1
2 1 -0 -0 -2 -1 -0 -0 1 1 1 1 0 2 0 1 -3 3 1 2 -4 -2 0 -5 -3 -3 -2 12 3 13 11 -7 5 2 11 10 1 1 3 1 0 -2 -1
-1 2 1 2 2 -1 -1 0 -2 -1 -1 -0 1 -1 -0 1 -0 3 -3 -5 -3 -8 -4 1 3 3 -1 2 5 31 -6 8 31 7 11 21 12 -1 -1 1 -3 -1 2
-1 -0 1 1 1 -0 -1 -0 1 -0 -3 1 0 -1 -2 -1 0 2 0 -4 -0 -3 -1 -0 0 -1 6 -8 -4 1 -0 -2 -3 29 8 16 14 -1 3 5 1 -0 -0
-1 1 2 1 1 2 2 -2 1 1 -4 -0 0 -2 -1 1 1 -1 1 -1 -4 -1 -6 1 3 3 -1 -3 -2 -8 -0 1 2 53 2 5 5 5 11 3 -1 1 5
-1 1 0 0 1 2 2 1 1 -1 -1 0 -1 -0 -1 0 -1 1 1 -1 1 -3 -3 -6 5 0 -1 -3 0 3 -8 -3 15 -1 4 -6 7 11 5 6 6 4 3
-2 -3 -0 1 1 1 2 -1 1 1 -3 -1 -0 -0 1 -1 1 1 2 1 1 1 2 -1 5 -0 -1 -0 1 -2 0 0 9 -6 4 -1 13 11 15 5 1 -0 0
-1 -1 -4 -3 -0 -1 -3 0 -3 1 -0 -1 -2 -1 1 -2 1 2 1 2 3 2 3 -1 2 3 -1 1 1 7 -6 -3 -4 -8 10 2 13 6 7 5 1 -1 8
-2 -1 -0 -0 -1 -0 0 2 -2 -1 -5 -0 3 -1 -3 -3 -2 1 0 3 0 2 1 1 2 1 2 1 1 2 5 14 1 2 6 0 9 3 1 0 4 5 1
1 -1 -1 -0 -1 -2 -0 -0 -2 -2 -2 -3 -2 -1 -1 1 -0 1 1 11 0 2 -1 2 10 -1 2 -6 9 1 0 0 -5 -4 -4 8 0 1 5 -3 -4 6 3
-1 -1 -1 -2 -2 -2 0 -1 -2 -3 -3 -4 -2 -1 -1 -3 -1 -3 1 2 2 2 1 -3 19 -2 -2 0 2 2 -1 -2 -7 4 1 -2 5 -0 5 0 3 2 -2
-2 -2 -1 -3 -2 -1 0 -0 -0 -3 -3 -2 -1 1 -1 -1 0 0 -0 -2 -3 -1 -2 2 23 9 -0 2 2 0 1 -2 4 -6 10 13 6 0 4 2 0 -4 -2
-2 -1 1 1 -2 1 -2 -0 1 -2 -1 -1 -0 1 -1 0 1 -2 13 -8 1 1 -3 -6 9 19 -1 -9 37 2 -1 3 -4 3 2 -1 2 0 2 -2 -1 0 -1
-2 -1 -0 1 -1 3 1 1 -1 -2 -3 -1 0 -1 1 -0 0 3 -4 -4 -4 -4 -1 9 4 -3 5 6 -5 -2 8 -4 1 3 2 -3 -2 -1 -1 -1 -0 -1 -2
-0 -1 2 -1 0 2 1 2 -0 -3 -1 -1 1 3 -1 -2 1 8 -4 2 -6 -9 -8 -13 13 -5 6 3 2 0 7 2 2 -3 -1 0 -0 1 -1 -0 -1 -1 -1
Height
3109 3109 3110 3110 3110 3111 3112 3111 3113 3114 3114 3115 3116 3116 3117 3119 3119 3122 3124 3128 3129 3132 3132 3134 3134 3133 3133 3135 3135 3136 3136 3137 3138 3139 3139 3139 3140 3140 3141 3142 3143 3143 3144
3105 3104 3104 3104 3104 3105 3105 3106 3107 3108 3108 3108 3106 3105 3107 3115 3117 3120 3122 3124 3125 3127 3128 3129 3129 3130 3130 3130 3133 3134 3134 3134 3135 3135 3136 3137 3137 3138 3138 3139 3139 3140 3141
3102 3100 3099 3099 3099 3099 3098 3099 3100 3101 3100 3102 3092 3095 3097 3106 3109 3115 3115 3115 3119 3121 3122 3125 3125 3126 3126 3127 3128 3130 3131 3131 3132 3133 3133 3133 3134 3135 3136 3137 3137 3138 3138
3097 3096 3095 3094 3094 3093 3093 3093 3093 3094 3095 3096 3098 3093 3093 3096 3099 3105 3109 3110 3113 3114 3117 3120 3120 3121 3122 3123 3124 3125 3127 3128 3128 3129 3130 3130 3130 3131 3132 3133 3134 3135 3135
3091 3091 3090 3089 3089 3088 3087 3087 3087 3088 3089 3089 3090 3092 3092 3094 3090 3097 3103 3102 3105 3108 3110 3113 3115 3116 3118 3119 3120 3122 3122 3124 3125 3125 3126 3127 3127 3127 3128 3129 3129 3130 3131
3085 3084 3083 3082 3082 3082 3082 3082 3081 3081 3082 3083 3084 3085 3087 3088 3088 3091 3096 3098 3099 3101 3104 3107 3108 3110 3112 3115 3116 3116 3116 3119 3121 3122 3122 3123 3123 3123 3124 3125 3125 3125 3126
3078 3077 3076 3075 3075 3075 3075 3074 3074 3074 3076 3077 3078 3078 3079 3080 3083 3086 3089 3090 3092 3096 3098 3100 3101 3104 3106 3109 3111 3112 3111 3114 3115 3116 3117 3119 3119 3118 3119 3120 3121 3121 3121
3070 3068 3067 3066 3066 3066 3066 3067 3067 3068 3068 3070 3070 3071 3073 3075 3076 3078 3081 3083 3085 3088 3091 3093 3094 3098 3099 3102 3104 3105 3105 3108 3109 3111 3113 3114 3114 3114 3115 3116 3116 3116 3117
3062 3060 3058 3057 3056 3056 3057 3057 3059 3059 3060 3062 3063 3064 3064 3066 3069 3071 3073 3075 3077 3080 3083 3085 3088 3089 3093 3095 3097 3099 3101 3101 3103 3105 3108 3108 3109 3109 3110 3111 3111 3111 3112
3054 3051 3049 3048 3047 3046 3047 3047 3048 3049 3051 3053 3055 3056 3058 3059 3062 3064 3065 3068 3070 3072 3074 3076 3078 3080 3084 3086 3089 3091 3094 3095 3097 3098 3100 3101 3103 3104 3104 3105 3106 3106 3107
3045 3042 3039 3039 3038 3038 3038 3038 3039 3040 3041 3044 3046 3048 3050 3051 3054 3056 3058 3061 3062 3065 3067 3069 3070 3072 3076 3075 3077 3080 3085 3085 3089 3091 3092 3093 3095 3098 3099 3100 3100 3101 3101
3036 3034 3031 3029 3029 3029 3028 3028 3029 3030 3031 3033 3036 3039 3041 3044 3045 3047 3049 3053 3055 3057 3058 3061 3063 3065 3067 3068 3068 3073 3075 3077 3079 3082 3085 3085 3088 3090 3092 3093 3095 3096 3096
3027 3024 3022 3020 3019 3019 3019 3019 3019 3020 3022 3024 3026 3030 3032 3035 3038 3040 3041 3043 3045 3048 3050 3052 3055 3056 3060 3060 3062 3062 3064 3067 3072 3074 3077 3078 3079 3082 3085 3085 3087 3089 3090
3014 3013 3011 3010 3010 3010 3010 3009 3010 3011 3012 3014 3017 3020 3023 3026 3028 3031 3033 3035 3035 3037 3041 3042 3046 3048 3050 3051 3054 3054 3057 3059 3065 3067 3070 3071 3072 3075 3078 3079 3080 3082 3083
3002 3001 3000 2999 2999 3000 3000 3000 3001 3002 3003 3005 3007 3010 3013 3016 3020 3022 3024 3027 3029 3029 3031 3034 3036 3040 3042 3044 3047 3048 3050 3053 3055 3060 3062 3066 3065 3068 3070 3072 3073 3075 3074
2992 2989 2988 2987 2988 2988 2989 2989 2990 2992 2993 2996 2998 3001 3003 3006 3010 3014 3016 3018 3020 3023 3024 3027 3030 3032 3035 3038 3041 3042 3044 3047 3049 3053 3054 3057 3060 3062 3062 3065 3066 3067 3067
2981 2979 2978 2977 2976 2976 2977 2978 2980 2982 2983 2986 2989 2991 2994 2997 2999 3003 3007 3010 3011 3014 3016 3019 3023 3025 3028 3030 3034 3036 3039 3042 3042 3046 3048 3050 3053 3055 3056 3058 3060 3061 3061
2970 2968 2967 2967 2967 2966 2966 2967 2968 2971 2972 2975 2978 2981 2984 2987 2990 2993 2997 3000 3002 3006 3010 3011 3015 3018 3021 3025 3027 3029 3032 3033 3037 3039 3041 3045 3047 3049 3051 3052 3053 3054 3053
2961 2959 2957 2957 2957 2957 2957 2957 2957 2959 2960 2963 2967 2970 2974 2977 2979 2983 2986 2991 2994 2997 3001 3003 3008 3010 3014 3017 3020 3022 3025 3029 3032 3033 3036 3039 3040 3042 3044 3046 3047 3047 3046
2953 2950 2948 2947 2947 2947 2947 2948 2948 2949 2950 2952 2955 2959 2963 2966 2969 2973 2977 2981 2985 2988 2992 2995 2999 3002 3006 3009 3013 3016 3019 3021 3025 3028 3030 3033 3034 3036 3039 3040 3040 3040 3039
2944 2941 2939 2938 2936 2936 2937 2937 2937 2938 2940 2942 2945 2948 2952 2956 2959 2963 2968 2972 2975 2978 2982 2987 2991 2994 2997 3001 3005 3010 3013 3014 3018 3021 3024 3026 3027 3030 3031 3033 3033 3032 3031
2932 2930 2928 2926 2925 2924 2925 2925 2926 2927 2929 2931 2934 2938 2942 2946 2949 2954 2957 2962 2966 2969 2973 2978 2981 2986 2991 2995 2998 3002 3006 3009 3011 3013 3016 3019 3021 3023 3024 3025 3025 3024 3024
2921 2918 2915 2913 2913 2913 2913 2914 2915 2916 2918 2921 2923 2928 2932 2936 2940 2944 2948 2953 2956 2960 2964 2970 2972 2978 2984 2987 2992 2994 2999 3002 3005 3008 3009 3011 3014 3015 3017 3017 3017 3017 3016
2911 2907 2904 2902 2902 2903 2903 2904 2905 2906 2908 2911 2914 2918 2921 2925 2929 2935 2939 2943 2948 2952 2956 2962 2965 2969 2977 2980 2983 2989 2992 2996 2998 3000 3003 3004 3007 3009 3010 3010 3010 3010 3008
2902 2898 2895 2894 2893 2894 2894 2895 2896 2897 2899 2901 2904 2908 2910 2914 2919 2925 2931 2936 2939 2943 2949 2955 2961 2966 2968 2973 2979 2982 2985 2989 2992 2995 2997 3000 3002 3003 3003 3003 3003 3002 3000
2894 2891 2889 2887 2886 2886 2887 2888 2888 2889 2890 2892 2895 2897 2901 2904 2910 2916 2922 2927 2930 2936 2940 2946 2954 2959 2962 2968 2973 2976 2980 2983 2986 2988 2992 2995 2996 2997 2997 2997 2996 2995 2994